CORVUS BC2

Last updated on Thu Nov 21 2024 00:03:39 GMT+0000 (Coordinated Universal Time)

1 42846U 17042X 24325.54478962 .00006274 00000+0 50527-3 0 9999 2 42846 97.3715 142.2318 0009237 251.9925 108.0293 15.00239307400864
UTC large
Height (km)
Speed (km/s)
/
Latitude / Longitude
Inclination (degrees)
Orbital Period (minutes)
Azimuth
Elevation
Range (km)
Doppler Factor

Next 0 passes for location: London (51.5072 / 0.1276)

Sorry there are no passes over London.